�N����,����,�~����,�C��,���x,�C��,����,���ϕ���,�ő�u�ԕ���,�ő厞����,���˗�,�I�_���x,�n�����x,�ő啗���N��,DTYPE
"23/08/27","00:10",0.0,25.9,86.4,1003.4,165.6,1.3,2.9,239.6,0.00,23.5,26.7,"00:04:08",1
"23/08/27","00:20",0.0,26.7,80.9,1003.4,136.7,1.3,2.8,89.6,0.00,23.2,26.5,"00:16:00",1
"23/08/27","00:30",0.0,26.9,74.6,1003.1,121.8,1.2,3.4,137.7,0.00,22.0,26.6,"00:25:44",1
"23/08/27","00:40",0.0,27.0,72.4,1002.6,81.8,0.7,2.0,100.1,0.00,21.7,26.4,"00:39:04",1
"23/08/27","00:50",0.0,26.7,72.6,1002.4,4.3,0.7,1.7,29.3,0.00,21.4,26.7,"00:43:04",1
"23/08/27","01:00",0.0,26.4,72.9,1002.2,0.6,1.1,2.8,345.5,0.00,21.2,26.6,"00:51:36",1
"23/08/27","01:10",0.0,26.2,73.1,1002.2,353.7,1.1,2.7,25.4,0.00,21.0,26.6,"01:00:24",1
"23/08/27","01:20",0.0,25.7,74.6,1002.2,270.2,0.6,1.1,261.3,0.00,20.9,26.5,"01:13:04",1
"23/08/27","01:30",0.0,25.4,76.3,1002.2,311.8,0.8,1.8,321.3,0.00,21.0,26.4,"01:28:00",1
"23/08/27","01:40",0.0,25.3,78.1,1002.2,340.0,0.8,1.7,354.4,0.00,21.2,26.4,"01:39:28",1
"23/08/27","01:50",0.0,24.9,79.5,1002.2,320.4,1.0,1.9,339.7,0.00,21.2,26.4,"01:46:32",1
"23/08/27","02:00",0.0,24.6,80.9,1001.9,358.8,0.7,1.7,6.6,0.00,21.1,26.4,"01:57:28",1
"23/08/27","02:10",0.0,24.0,82.3,1002.6,313.2,1.1,2.0,338.4,0.00,20.8,26.2,"02:04:08",1
"23/08/27","02:20",0.0,23.7,83.5,1002.4,318.7,0.8,1.3,321.5,0.00,20.8,26.3,"02:13:52",1
"23/08/27","02:30",0.0,23.5,84.0,1002.9,299.2,0.6,1.0,326.9,0.00,20.7,26.4,"02:28:32",1
"23/08/27","02:40",0.0,23.5,84.9,1002.9,174.4,0.3,1.2,254.6,0.00,20.9,26.0,"02:31:20",1
"23/08/27","02:50",0.0,23.4,85.9,1003.1,327.3,1.1,1.6,330.8,0.00,20.9,26.1,"02:47:12",1
"23/08/27","03:00",0.0,23.2,86.8,1003.1,317.7,0.8,1.8,343.3,0.00,20.9,26.2,"02:51:36",1
"23/08/27","03:10",0.0,23.3,87.6,1002.9,325.3,1.1,1.9,336.7,0.00,21.2,26.3,"03:07:44",1
"23/08/27","03:20",0.0,23.4,88.0,1002.6,285.8,1.0,1.9,301.2,0.00,21.3,26.1,"03:12:48",1
"23/08/27","03:30",0.0,23.4,88.1,1002.9,279.3,1.0,1.6,287.6,0.00,21.4,26.0,"03:22:24",1
"23/08/27","03:40",0.0,23.6,87.9,1002.9,265.2,0.7,1.6,265.6,0.00,21.5,25.9,"03:32:40",1
"23/08/27","03:50",0.0,23.6,87.8,1002.6,300.4,0.8,2.0,326.6,0.00,21.5,25.9,"03:47:20",1
"23/08/27","04:00",0.0,23.5,87.7,1002.9,317.3,1.0,1.6,325.5,0.00,21.4,25.9,"03:53:44",1
"23/08/27","04:10",0.0,23.4,87.7,1002.9,314.0,1.1,1.6,338.0,0.00,21.3,25.9,"04:04:40",1
"23/08/27","04:20",0.0,23.3,88.0,1002.9,296.2,1.0,2.1,315.9,0.00,21.2,25.8,"04:16:40",1
"23/08/27","04:30",0.0,23.3,88.2,1003.1,289.6,1.1,1.6,320.9,0.00,21.3,25.8,"04:27:52",1
"23/08/27","04:40",0.0,23.4,88.4,1002.9,312.4,1.3,2.4,334.2,0.00,21.4,25.9,"04:32:24",1
"23/08/27","04:50",0.0,23.4,88.4,1003.1,303.5,0.7,1.3,252.7,0.00,21.4,25.7,"04:40:48",1
"23/08/27","05:00",0.0,23.3,88.4,1003.1,278.6,1.0,1.7,303.2,0.00,21.3,25.8,"04:59:44",1
"23/08/27","05:10",0.0,23.2,88.5,1003.4,313.4,0.8,1.3,312.6,0.00,21.2,25.9,"05:03:04",1
"23/08/27","05:20",0.0,23.1,88.6,1003.4,315.4,1.1,1.4,321.0,0.00,21.2,25.8,"05:16:40",1
"23/08/27","05:30",0.0,22.9,88.8,1003.6,316.8,0.5,1.0,315.8,0.00,21.0,25.8,"05:21:12",1
"23/08/27","05:40",0.0,22.9,89.1,1003.6,311.5,1.0,1.7,330.6,0.00,21.0,25.8,"05:37:36",1
"23/08/27","05:50",0.0,23.0,89.5,1003.4,328.8,1.0,1.3,327.6,0.00,21.2,25.6,"05:40:16",1
"23/08/27","06:00",0.0,23.3,89.9,1003.6,329.3,0.7,1.1,329.9,0.00,21.6,25.5,"05:50:16",1
"23/08/27","06:10",0.0,23.8,90.0,1003.4,334.2,0.7,1.4,45.3,0.01,22.1,25.6,"06:00:24",1
"23/08/27","06:20",0.0,24.2,90.1,1003.1,281.0,0.6,1.1,308.2,0.02,22.5,25.8,"06:11:52",1
"23/08/27","06:30",0.0,24.8,90.1,1003.1,301.9,0.5,0.9,340.7,0.04,23.1,25.5,"06:25:20",1
"23/08/27","06:40",0.0,25.5,89.2,1003.4,346.3,0.5,0.9,334.8,0.05,23.6,25.6,"06:32:16",1
"23/08/27","06:50",0.0,26.2,88.0,1003.1,4.7,0.3,0.6,325.3,0.06,24.1,25.4,"06:41:20",1
"23/08/27","07:00",0.0,26.8,85.1,1003.1,318.5,0.3,1.1,358.9,0.08,24.1,25.5,"06:59:44",1
"23/08/27","07:10",0.0,27.7,81.3,1002.9,1.9,0.3,1.3,338.2,0.10,24.2,25.6,"07:02:56",1
"23/08/27","07:20",0.0,28.5,77.5,1002.4,118.1,0.2,1.0,234.5,0.11,24.2,25.5,"07:12:16",1
"23/08/27","07:30",0.0,28.9,74.3,1002.4,138.8,0.6,1.3,336.5,0.13,23.9,25.5,"07:29:12",1
"23/08/27","07:40",0.0,29.1,72.6,1002.9,36.1,0.7,2.4,108.6,0.16,23.7,25.5,"07:38:24",1
"23/08/27","07:50",0.0,29.3,71.7,1002.9,145.4,1.0,2.5,6.6,0.18,23.7,25.7,"07:47:36",1
"23/08/27","08:00",0.0,29.7,70.5,1003.4,98.5,0.8,1.9,130.6,0.20,23.8,25.6,"07:52:32",1
"23/08/27","08:10",0.0,30.2,69.7,1003.6,83.1,0.8,2.5,141.1,0.23,24.1,25.5,"08:03:20",1
"23/08/27","08:20",0.0,30.3,68.6,1003.8,97.0,1.2,4.0,96.5,0.26,23.9,25.7,"08:15:52",1
"23/08/27","08:30",0.0,30.4,68.3,1003.8,94.4,1.0,3.4,127.5,0.26,23.9,25.6,"08:23:20",1
"23/08/27","08:40",0.0,30.2,68.6,1004.1,52.7,0.8,2.2,81.5,0.18,23.8,25.6,"08:31:28",1
"23/08/27","08:50",0.0,30.3,68.2,1003.8,42.6,1.1,2.2,12.8,0.25,23.8,25.8,"08:48:16",1
"23/08/27","09:00",0.0,30.6,66.4,1003.8,69.9,1.0,3.2,32.4,0.31,23.7,25.8,"08:59:20",1
"23/08/27","09:10",0.0,31.3,65.4,1004.1,80.2,1.0,2.1,202.3,0.37,24.1,25.7,"09:09:28",1
"23/08/27","09:20",0.0,31.2,64.2,1004.5,127.9,1.3,2.9,131.6,0.34,23.7,25.7,"09:11:12",1
"23/08/27","09:30",0.0,31.1,67.8,1004.3,142.9,1.3,3.3,174.7,0.33,24.5,25.8,"09:23:20",1
"23/08/27","09:40",0.0,31.4,65.1,1004.3,125.6,1.2,3.3,147.1,0.40,24.1,25.9,"09:31:12",1
"23/08/27","09:50",0.0,31.9,64.3,1004.5,136.6,1.2,2.9,78.7,0.43,24.4,25.9,"09:45:36",1
"23/08/27","10:00",0.0,31.9,64.7,1004.5,107.7,1.2,2.4,356.5,0.45,24.5,26.1,"09:55:12",1
"23/08/27","10:10",0.0,31.9,64.1,1004.8,122.4,1.2,2.5,138.9,0.45,24.3,26.1,"10:05:04",1
"23/08/27","10:20",0.0,31.8,63.1,1004.5,96.4,1.1,2.7,101.8,0.33,23.9,25.9,"10:14:24",1
"23/08/27","10:30",0.0,32.5,64.8,1004.3,137.6,0.8,2.7,120.1,0.47,25.1,26.1,"10:26:16",1
"23/08/27","10:40",0.0,32.6,63.1,1004.5,122.6,1.1,2.8,123.9,0.46,24.7,26.5,"10:38:08",1
"23/08/27","10:50",0.0,32.4,63.0,1004.3,132.5,1.3,3.4,114.7,0.38,24.5,26.2,"10:49:44",1
"23/08/27","11:00",0.0,32.9,61.6,1004.3,109.1,1.0,2.2,116.2,0.50,24.6,26.3,"10:51:04",1
"23/08/27","11:10",0.0,33.0,61.7,1003.8,88.1,1.3,3.5,119.7,0.41,24.7,26.4,"11:06:16",1
"23/08/27","11:20",0.0,33.3,60.1,1004.1,67.5,1.0,2.5,130.9,0.47,24.5,26.5,"11:14:32",1
"23/08/27","11:30",0.0,33.3,59.6,1003.8,52.9,0.7,1.9,110.0,0.47,24.4,26.6,"11:26:00",1
"23/08/27","11:40",0.0,34.0,60.4,1004.1,111.2,1.0,3.3,132.8,0.54,25.3,26.4,"11:32:48",1
"23/08/27","11:50",0.0,33.7,57.1,1003.8,200.1,0.8,2.6,125.6,0.50,24.1,26.5,"11:40:48",1
"23/08/27","12:00",0.0,34.4,58.7,1004.1,130.2,1.0,3.2,115.4,0.52,25.2,26.9,"11:58:56",1
"23/08/27","12:10",0.0,34.2,57.4,1004.1,191.5,1.5,2.8,221.6,0.57,24.6,26.8,"12:07:04",1
"23/08/27","12:20",0.0,34.2,56.2,1004.1,178.5,1.6,3.6,221.5,0.57,24.3,27.0,"12:16:24",1
"23/08/27","12:30",0.0,34.0,56.3,1004.1,198.0,1.3,3.3,178.7,0.46,24.1,27.0,"12:21:52",1
"23/08/27","12:40",0.0,34.3,57.6,1003.6,175.2,1.3,2.6,145.5,0.54,24.8,27.1,"12:37:20",1
"23/08/27","12:50",0.0,33.7,55.6,1003.4,57.1,1.0,2.1,357.4,0.15,23.6,27.0,"12:43:20",1
"23/08/27","13:00",0.0,33.1,57.6,1002.9,20.1,0.7,2.5,335.3,0.17,23.7,27.2,"12:58:08",1
"23/08/27","13:10",0.0,33.7,55.1,1002.6,23.3,0.7,2.2,9.9,0.28,23.5,27.4,"13:07:04",1
"23/08/27","13:20",0.0,34.1,58.7,1002.4,160.0,1.0,2.1,145.2,0.38,24.9,27.2,"13:15:12",1
"23/08/27","13:30",0.0,35.0,53.2,1002.6,103.1,0.7,1.7,82.4,0.53,24.1,27.3,"13:27:44",1
"23/08/27","13:40",0.0,35.3,51.9,1002.4,121.7,1.0,2.4,125.2,0.50,24.0,27.4,"13:30:16",1
"23/08/27","13:50",0.0,35.4,53.1,1002.6,210.2,1.2,2.4,195.9,0.50,24.4,27.5,"13:43:12",1
"23/08/27","14:00",0.0,34.0,53.9,1002.6,154.5,1.0,2.7,128.7,0.25,23.4,27.6,"13:55:04",1
"23/08/27","14:10",0.0,34.6,54.8,1002.4,170.3,0.8,2.6,222.2,0.38,24.2,27.7,"14:02:48",1
"23/08/27","14:20",0.0,35.2,49.3,1002.4,109.5,1.0,2.5,126.5,0.44,23.0,27.7,"14:18:56",1
"23/08/27","14:30",0.0,34.3,52.0,1002.2,45.9,0.7,2.2,340.6,0.09,23.1,27.8,"14:27:12",1
"23/08/27","14:40",0.0,33.5,54.4,1001.5,356.6,0.8,1.9,0.1,0.05,23.1,27.8,"14:30:08",1
"23/08/27","14:50",0.0,32.9,56.9,1001.0,355.5,0.6,1.8,295.9,0.05,23.3,27.8,"14:43:20",1
"23/08/27","15:00",0.0,33.1,62.5,1000.5,353.1,0.7,1.6,8.0,0.20,25.0,27.8,"14:54:40",1
"23/08/27","15:10",0.0,34.5,52.4,1000.8,6.3,0.8,2.4,1.0,0.32,23.4,27.9,"15:09:16",1
"23/08/27","15:20",0.0,35.6,50.5,1001.0,6.8,0.8,2.0,29.6,0.31,23.8,27.7,"15:12:00",1
"23/08/27","15:30",0.0,36.0,50.0,1001.2,58.4,0.7,2.9,37.6,0.29,24.0,28.0,"15:23:28",1
"23/08/27","15:40",0.0,35.7,49.2,1001.5,67.9,0.8,2.0,86.6,0.25,23.4,27.8,"15:39:04",1
"23/08/27","15:50",0.0,35.8,45.8,1001.2,19.9,1.0,1.9,50.2,0.24,22.3,27.9,"15:41:52",1
"23/08/27","16:00",0.0,35.8,47.4,1001.2,69.5,0.8,2.2,142.1,0.23,22.9,28.1,"15:59:20",1
"23/08/27","16:10",0.0,34.5,50.4,1001.2,241.4,1.0,2.2,342.0,0.07,22.7,28.0,"16:07:04",1
"23/08/27","16:20",0.0,34.1,52.6,1001.0,3.9,0.8,2.2,349.1,0.11,23.1,27.8,"16:11:52",1
"23/08/27","16:30",0.0,34.8,53.9,1000.8,25.7,0.8,2.0,6.0,0.16,24.1,27.9,"16:20:40",1
"23/08/27","16:40",0.0,35.0,49.0,1000.8,88.3,0.8,2.6,20.5,0.20,22.7,27.9,"16:39:44",1
"23/08/27","16:50",0.0,35.3,50.8,1001.0,51.5,0.7,2.2,26.9,0.14,23.6,28.1,"16:48:48",1
"23/08/27","17:00",0.0,35.0,49.8,1000.8,54.3,0.6,2.6,114.8,0.09,23.0,27.9,"16:58:56",1
"23/08/27","17:10",0.0,33.9,53.6,1000.8,63.1,0.6,1.9,4.1,0.04,23.2,27.9,"17:02:24",1
"23/08/27","17:20",0.0,33.4,55.5,1000.5,65.2,0.7,1.9,66.1,0.05,23.3,28.3,"17:18:56",1
"23/08/27","17:30",0.0,32.1,60.1,1000.3,159.6,1.6,4.0,203.0,0.02,23.4,27.8,"17:29:36",1
"23/08/27","17:40",0.0,31.1,63.3,1000.0,95.9,0.8,2.9,199.1,0.00,23.3,28.0,"17:30:24",1
"23/08/27","17:50",0.0,30.9,64.9,999.6,39.6,1.0,2.9,347.1,0.00,23.6,27.9,"17:44:48",1
"23/08/27","18:00",0.0,30.7,65.8,999.1,87.5,0.7,2.0,25.5,0.00,23.6,27.9,"17:50:40",1
"23/08/27","18:10",0.0,30.7,67.6,999.3,63.5,0.6,1.2,100.6,0.00,24.1,27.8,"18:04:56",1
"23/08/27","18:20",0.0,29.7,70.3,998.9,354.1,1.2,2.0,354.9,0.00,23.8,27.8,"18:18:08",1
"23/08/27","18:30",0.0,29.0,73.3,998.4,354.3,0.8,2.0,346.0,0.00,23.8,27.8,"18:21:44",1
"23/08/27","18:40",0.0,28.8,75.2,998.9,352.5,0.7,1.4,347.5,0.00,24.0,27.6,"18:33:52",1
"23/08/27","18:50",0.0,28.4,76.6,999.3,310.2,0.8,1.4,346.8,0.00,23.9,27.7,"18:46:00",1
"23/08/27","19:00",0.0,28.4,77.0,1000.0,306.0,1.1,2.7,345.1,0.00,24.0,27.8,"18:59:44",1
"23/08/27","19:10",0.0,28.5,77.0,999.8,338.1,1.2,2.4,330.5,0.00,24.1,27.6,"19:04:56",1
"23/08/27","19:20",0.0,28.3,76.8,1000.0,346.1,1.2,3.2,327.2,0.00,23.9,27.5,"19:18:40",1
"23/08/27","19:30",0.0,28.3,76.4,1000.3,341.1,0.6,1.9,331.3,0.00,23.8,27.6,"19:21:28",1
"23/08/27","19:40",0.0,28.0,77.4,1000.5,298.6,0.6,0.9,341.5,0.00,23.7,27.5,"19:32:32",1
"23/08/27","19:50",0.0,27.7,78.5,1000.8,304.6,1.0,1.8,341.5,0.00,23.7,27.5,"19:49:36",1
"23/08/27","20:00",0.0,27.6,78.9,1000.5,320.6,1.1,2.0,335.6,0.00,23.6,27.5,"19:55:44",1
"23/08/27","20:10",0.0,27.5,79.8,1000.5,342.4,1.0,1.7,344.8,0.00,23.7,27.6,"20:02:16",1
"23/08/27","20:20",0.0,27.2,80.5,1001.0,332.3,0.7,1.2,343.0,0.00,23.6,27.5,"20:18:24",1
"23/08/27","20:30",0.0,27.1,81.1,1001.0,334.0,1.2,2.1,358.9,0.00,23.6,27.5,"20:21:20",1
"23/08/27","20:40",0.0,27.1,81.4,1001.0,341.3,1.1,1.9,301.0,0.00,23.7,27.1,"20:30:24",1
"23/08/27","20:50",0.0,27.0,81.9,1001.5,342.9,1.0,2.1,333.0,0.00,23.7,27.1,"20:49:52",1
"23/08/27","21:00",0.0,27.2,82.0,1001.2,321.6,1.5,2.9,319.8,0.00,23.9,27.3,"20:58:32",1
"23/08/27","21:10",0.0,27.4,81.5,1001.5,333.6,1.5,3.2,348.3,0.00,24.0,27.2,"21:04:32",1
"23/08/27","21:20",0.0,27.1,81.8,1001.0,340.8,1.3,2.4,352.5,0.00,23.8,27.1,"21:14:32",1
"23/08/27","21:30",0.0,26.9,82.4,1001.2,341.4,1.3,2.4,350.5,0.00,23.7,27.1,"21:27:28",1
"23/08/27","21:40",0.0,26.8,82.6,1001.5,341.3,1.0,2.2,337.4,0.00,23.6,27.1,"21:31:04",1
"23/08/27","21:50",0.0,26.8,82.8,1001.2,342.9,1.2,2.2,346.6,0.00,23.7,27.1,"21:46:24",1
"23/08/27","22:00",0.0,26.7,83.1,1001.2,347.9,1.2,3.1,353.5,0.00,23.6,27.1,"21:51:12",1
"23/08/27","22:10",0.0,26.6,83.7,1001.2,338.2,1.5,2.7,329.2,0.00,23.7,27.0,"22:06:56",1
"23/08/27","22:20",0.0,26.7,83.8,1001.2,330.2,1.6,2.9,345.5,0.00,23.8,26.9,"22:12:08",1
"23/08/27","22:30",0.0,26.6,83.8,1001.7,324.8,1.3,2.4,348.8,0.00,23.7,27.0,"22:21:36",1
"23/08/27","22:40",0.0,26.4,84.1,1001.2,335.9,1.2,2.1,341.3,0.00,23.5,26.9,"22:37:36",1
"23/08/27","22:50",0.0,26.2,84.8,1001.5,334.1,1.1,1.9,338.7,0.00,23.5,27.0,"22:48:40",1
"23/08/27","23:00",0.0,26.1,85.6,1001.2,336.4,1.3,2.1,349.8,0.00,23.5,26.8,"22:56:00",1
"23/08/27","23:10",0.0,26.1,85.9,1001.5,343.4,1.1,2.8,326.8,0.00,23.6,26.9,"23:02:16",1
"23/08/27","23:20",0.0,26.1,86.3,1001.7,341.4,1.2,2.7,345.9,0.00,23.7,27.0,"23:12:24",1
"23/08/27","23:30",0.0,26.0,86.6,1001.5,337.6,1.5,2.6,354.6,0.00,23.6,26.8,"23:26:56",1
"23/08/27","23:40",0.0,26.0,86.8,1001.9,341.9,1.5,2.9,345.4,0.00,23.7,26.8,"23:34:24",1
"23/08/27","23:50",0.0,26.0,87.0,1001.9,340.2,1.6,3.1,338.1,0.00,23.7,26.8,"23:40:40",1
"23/08/27","24:00",0.0,25.9,87.1,1001.7,339.8,1.2,2.7,344.4,0.00,23.6,26.7,"23:59:44",1
